This demonstration page uses our WeatherBlox Daily Observations layout. Learn more.

Left ArrowRight Arrow

39.08367, -84.50855

Hourly Observations for November 27, 2015

Temp ( °F °C ) Dew Point ( °F °C ) Humidity (%) Winds ( mph kmh ) Pressure ( in mb ) Visibility ( mi km ) Precip ( " mm )
12:53 am 00:53 Clear 52 11.1 42 5.6 69 69 SSW 7 11 30.42 1030 10 16 0.00 0.00
1:53 am 01:53 Clear 53 11.7 42 5.6 66 66 SSW 3 6 30.41 1030 10 16 0.00 0.00
2:53 am 02:53 Clear 50 10 43 6.1 77 77 SSW 6 9 30.41 1030 10 16 0.00 0.00
3:53 am 03:53 Clear 52 11.1 43 6.1 72 72 S 7 11 30.40 1029 10 16 0.00 0.00
4:53 am 04:53 Clear 51 10.6 43 6.1 74 74 SSW 7 11 30.40 1029 10 16 0.00 0.00
5:53 am 05:53 Clear 48 8.9 43 6.1 83 83 WSW 5 7 30.39 1029 10 16 0.00 0.00
6:53 am 06:53 Mostly Clear 51 10.6 44 6.7 77 77 SW 5 7 30.40 1029 10 16 0.00 0.00
7:53 am 07:53 Sunny 50 10 45 7.2 83 83 WSW 5 7 30.41 1030 10 16 0.00 0.00
8:53 am 08:53 Sunny 55 12.8 46 7.8 72 72 S 6 9 30.41 1030 10 16 0.00 0.00
9:53 am 09:53 Mostly Cloudy 57 13.9 47 8.3 69 69 SSW 8 13 30.41 1030 10 16 0.00 0.00
10:53 am 10:53 Mostly Cloudy 58 14.4 49 9.4 72 72 S 10 17 30.40 1029 10 16 0.00 0.00
11:53 am 11:53 Mostly Cloudy 60 15.6 50 10 70 70 SSW 8 13 30.38 1029 10 16 0.00 0.00
12:53 pm 12:53 Partly Cloudy 63 17.2 51 10.6 65 65 SSW 15 24 30.35 1028 10 16 0.00 0.00
1:53 pm 13:53 Mostly Sunny 63 17.2 51 10.6 65 65 SW 13 20 30.32 1027 10 16 0.00 0.00
2:53 pm 14:53 Mostly Sunny 64 17.8 52 11.1 65 65 SSW 12 19 30.29 1026 10 16 0.00 0.00
3:53 pm 15:53 Sunny 63 17.2 52 11.1 68 68 SSW 9 15 30.28 1025 10 16 0.00 0.00
4:53 pm 16:53 Sunny 62 16.7 52 11.1 70 70 SSW 7 11 30.28 1026 10 16 0.00 0.00
5:53 pm 17:53 Cloudy with Light Rain 60 15.6 52 11.1 75 75 SSW 6 9 30.29 1026 10 16 0.00 0.03
6:53 pm 18:53 Cloudy with Light Rain 58 14.4 54 12.2 87 87 SSW 5 7 30.30 1026 10 16 0.00 0.03
7:53 pm 19:53 Cloudy with Light Rain 57 13.9 54 12.2 90 90 Calm 30.29 1026 10 16 0.01 0.25
8:53 pm 20:53 Cloudy 56 13.3 55 12.8 97 97 Calm 30.28 1026 10 16 0.00 0.03
9:53 pm 21:53 Cloudy with Light Rain 55 12.8 55 12.8 100 100 Calm 30.27 1025 10 16 0.01 0.25
10:53 pm 22:53 Cloudy with Light Rain 54 12.2 54 12.2 100 100 Calm 30.27 1025 6 10 0.00 0.03
11:53 pm 23:53 Cloudy with Light Rain 54 12.2 54 12.2 100 100 Calm 30.26 1025 6 10 0.02 0.51

Powered by AerisWeather